Weather History for KTMB - January, 2013

Change the Weather History Date:

Wednesday, January 23, 2013

  Actual Average (KMIA) Record (KMIA)
Temperature  
Mean Temperature 65 °F 68 °F  
Max Temperature 73 °F 77 °F 85 °F (2007)
Min Temperature 57 °F 60 °F 36 °F (1985)
Degree Days  
Heating Degree Days 0 2  
Month to date heating degree days 46  
Since 1 July heating degree days 83  
Cooling Degree Days 0 5  
Month to date cooling degree days 115  
Year to date cooling degree days 115  
Growing Degree Days 15 (Base 50)    
Moisture  
Dew Point 54 °F    
Average Humidity 68    
Maximum Humidity 93    
Minimum Humidity 45    
Precipitation  
Precipitation 0.00 in 0.06 in 1.79 in (1983)
Month to date precipitation 1.18  
Year to date precipitation 1.18  
Snow  
Snow 0.00 in - - ()
Month to date snowfall  
Since 1 July snowfall  
Snow Depth -    
Sea Level Pressure  
Sea Level Pressure 30.24 in    
Wind  
Wind Speed 6 mph (NNE)    
Max Wind Speed 14 mph    
Max Gust Speed 21 mph    
Visibility 10 miles    
Events      
T = Trace of Precipitation, MM = Missing Value Source: NWS Daily Summary

Daily Weather History Graph

Daily Weather History Graph

Search for Another Location

Airport or City:

Trip Planner

Search our weather history database for the weather conditions in past years. The results will help you decide how hot, cold, wet, or windy it might be!

Date:

Astronomy

Jan. 23, 2013 Rise Set
Actual Time 7:08 AM EST 5:59 PM EST
Civil Twilight 6:44 AM EST 6:23 PM EST
Nautical Twilight 6:16 AM EST 6:51 PM EST
Astronomical Twilight 5:48 AM EST 7:18 PM EST
Moon 3:12 PM EST (1/23) 4:14 AM EST (1/23)
Length of Visible Light 11h 39m
Length of Day
10h 50m
Waxing Gibbous, 89% of the Moon is Illuminated
Jan 23
Waxing Gibbous
Jan 26
Full
Feb 3
Last Quarter
Feb 10
New
Feb 17
First Quarter

Hourly Weather History & Observations

Time (EST) Temp. Dew Point Humidity Pressure Visibility Wind Dir Wind Speed Gust Speed Precip Events Conditions
12:53 AM 61.0 °F 54.0 °F 78% 30.21 in 10.0 mi North 6.9 mph - N/A   Clear
1:53 AM 60.1 °F 55.0 °F 83% 30.20 in 10.0 mi North 3.5 mph - N/A   Clear
2:53 AM 62.1 °F 55.9 °F 80% 30.21 in 10.0 mi Calm Calm - N/A   Clear
3:53 AM 62.1 °F 55.9 °F 80% 30.19 in 10.0 mi NNE 6.9 mph - N/A   Clear
4:53 AM 61.0 °F 55.9 °F 83% 30.19 in 10.0 mi NNE 4.6 mph - N/A   Clear
5:53 AM 59.0 °F 57.0 °F 93% 30.22 in 10.0 mi Calm Calm - N/A   Clear
6:53 AM 60.1 °F 57.0 °F 90% 30.23 in 10.0 mi Calm Calm - N/A   Clear
7:53 AM 62.1 °F 57.9 °F 86% 30.26 in 10.0 mi NNW 3.5 mph - N/A   Partly Cloudy
8:53 AM 64.0 °F 57.0 °F 78% 30.27 in 10.0 mi North 8.1 mph - N/A   Overcast
9:53 AM 69.1 °F 57.0 °F 65% 30.29 in 10.0 mi NNE 8.1 mph - N/A   Partly Cloudy
10:53 AM 73.0 °F 55.0 °F 53% 30.30 in 10.0 mi North 8.1 mph - N/A   Clear
11:53 AM 72.0 °F 53.1 °F 51% 30.27 in 10.0 mi NNE 13.8 mph 18.4 mph N/A   Mostly Cloudy
12:53 PM 73.0 °F 51.1 °F 46% 30.25 in 10.0 mi NE 13.8 mph 20.7 mph N/A   Scattered Clouds
1:53 PM 73.9 °F 52.0 °F 46% 30.24 in 10.0 mi ENE 13.8 mph - N/A   Scattered Clouds
2:53 PM 73.9 °F 51.1 °F 45% 30.23 in 10.0 mi East 9.2 mph 18.4 mph N/A   Mostly Cloudy
3:53 PM 73.9 °F 52.0 °F 46% 30.23 in 10.0 mi East 10.4 mph - N/A   Partly Cloudy
4:53 PM 72.0 °F 50.0 °F 46% 30.23 in 10.0 mi ENE 10.4 mph - N/A   Partly Cloudy
5:53 PM 70.0 °F 51.1 °F 51% 30.25 in 10.0 mi ENE 10.4 mph - N/A   Clear
6:53 PM 66.0 °F 51.1 °F 59% 30.25 in 10.0 mi ENE 4.6 mph - N/A   Clear
7:53 PM 62.1 °F 51.1 °F 67% 30.26 in 10.0 mi NE 5.8 mph - N/A   Clear
8:53 PM 62.1 °F 52.0 °F 70% 30.27 in 10.0 mi Calm Calm - N/A   Clear
9:53 PM 60.1 °F 52.0 °F 75% 30.28 in 10.0 mi Calm Calm - N/A   Clear
10:53 PM 57.0 °F 52.0 °F 83% 30.28 in 10.0 mi Calm Calm - N/A   Clear
11:53 PM 61.0 °F 55.9 °F 83% 30.27 in 10.0 mi North 6.9 mph - N/A   Clear